Powrót do katalogu

STARLINK-32858

AktywnyŁącznośćVLEO
NORAD 62962·PAYLOAD·🇺🇸 United States

Wystrzelony Feb 11, 2025 z Vandenberg Space Force Base

Loading…

Następne Przeloty (najbliższe 24 godziny)

TLE

ŚwieżeSource: CelesTrak SupGP

Epoka: Sep 15, 2026, 03:27 UTC

1 62962C 25029Q   26258.14423611 -.00023732  00000+0 -70146-3 0  2585
2 62962  53.1585  70.8916 0001154  87.7211   1.7884 15.34390098    13

Śledź STARLINK-32858 w czasie rzeczywistym z AllMySat

Download on the App Store